Wind_Speed
27 27 27 26 27 27 27 27 27 27 27 27 27 27 27 26 26 25 25 25 25 25 25 25 25 25 25 25 25 25 26 26 26 25 25 26 26 26 25 24 24 24 24
28 28 28 27 27 26 26 26 26 26 26 26 26 26 25 25 25 24 24 24 24 23 24 24 23 23 23 23 23 23 24 24 24 24 24 24 24 24 24 24 23 23 23
27 26 25 25 25 24 24 25 25 25 25 24 24 24 24 24 23 23 23 23 23 23 23 23 22 22 21 21 22 22 22 22 23 23 23 23 23 23 23 23 23 23 23
23 23 24 24 24 24 24 24 24 24 23 23 23 23 23 23 22 22 22 22 22 22 21 21 21 21 21 21 21 21 21 22 22 22 22 22 22 22 22 23 23 23 23
21 21 22 22 23 24 24 24 24 23 23 23 23 22 22 22 22 22 21 21 21 20 20 20 20 20 20 21 21 21 21 21 21 21 21 21 21 21 21 22 22 22 22
19 19 20 20 21 22 22 22 22 22 22 22 22 22 21 21 21 21 20 20 19 19 19 19 19 19 20 20 21 21 20 20 21 20 20 20 21 20 20 21 21 21 20
17 18 18 18 19 19 20 20 20 21 21 21 22 21 21 21 20 20 19 19 18 17 18 18 19 19 19 19 20 20 20 20 20 20 20 21 20 19 19 19 20 20 20
16 17 17 17 17 17 18 18 19 19 20 19 19 20 20 20 19 17 17 17 17 17 17 17 17 17 17 17 18 18 18 18 19 19 19 19 18 18 17 17 17 18 18
16 16 16 16 16 16 17 16 17 17 17 17 17 17 17 17 17 16 16 16 16 15 15 15 14 14 15 15 16 16 15 16 16 16 16 16 16 16 16 16 16 16 16
14 14 14 13 14 14 15 15 14 14 14 14 14 14 15 15 15 15 15 15 14 14 14 13 13 14 14 14 13 13 14 14 15 15 15 15 15 15 14 14 14 14 14
12 12 12 12 12 12 13 13 12 12 12 13 12 12 13 13 13 13 13 13 12 12 12 12 11 12 12 11 11 12 12 12 13 14 14 14 14 13 12 12 12 12 13
9 10 10 10 11 11 11 11 11 10 10 10 10 11 11 11 10 11 11 11 11 10 10 10 9 9 9 9 9 10 10 10 11 11 11 11 11 11 11 11 11 12 12
8 8 9 9 10 10 10 10 10 9 9 9 9 9 9 9 9 8 9 9 9 9 9 9 8 8 8 8 8 8 8 8 8 9 9 9 10 10 10 11 11 12 12
7 7 7 7 8 8 8 8 8 8 8 7 7 7 7 7 7 7 7 7 8 7 7 7 7 6 6 6 6 6 6 7 7 7 8 9 9 10 10 10 11 11 12
6 7 7 7 8 8 8 8 7 7 7 7 6 6 5 5 5 5 4 4 5 6 6 6 6 5 5 5 5 5 6 6 7 7 7 8 9 9 9 9 10 10 11
6 6 6 7 7 7 7 7 7 7 6 6 5 4 4 5 4 4 3 2 2 3 4 4 5 5 5 5 5 5 5 5 6 7 7 8 8 8 9 9 9 9 10
6 6 6 7 7 7 7 7 7 7 7 7 5 4 4 4 3 2 2 1 1 2 2 3 3 4 4 4 4 5 5 5 6 6 7 7 7 8 8 8 9 9 10
6 6 7 7 7 7 7 7 7 7 7 7 6 5 5 4 2 2 1 1 0 1 2 2 3 4 4 4 4 5 5 6 7 7 7 8 8 8 8 9 9 10 10
7 7 6 6 6 7 7 7 7 7 7 7 7 6 6 4 3 2 2 1 1 1 2 3 3 4 5 5 6 6 7 7 7 7 8 9 9 9 9 9 9 10 11
6 6 6 6 6 7 7 7 7 7 7 7 7 7 6 5 4 2 2 2 1 2 2 3 4 5 6 6 7 7 8 8 8 8 9 9 10 10 11 11 11 12 13
6 7 6 6 6 6 7 7 7 7 7 8 7 7 6 5 4 3 2 2 2 2 3 3 4 5 6 7 8 8 8 9 10 10 10 10 11 12 13 13 14 15 16
6 7 7 7 7 7 7 8 8 8 8 8 7 7 7 6 5 4 3 4 4 4 4 4 5 6 7 7 8 9 9 9 10 11 12 13 13 14 15 16 17 18 19
6 7 7 7 7 7 8 8 9 9 8 8 8 8 8 7 6 6 5 5 5 6 6 6 6 7 7 8 9 9 10 11 11 13 14 15 16 16 17 19 20 21 22
6 7 7 7 7 7 8 8 8 8 8 8 8 9 9 9 8 7 7 7 7 7 7 7 8 8 9 10 11 12 13 14 15 15 17 18 19 20 21 22 23 24 25
6 7 7 7 7 8 8 9 8 9 9 9 9 10 10 9 9 9 8 8 8 8 8 9 10 11 12 12 13 14 15 16 17 18 19 20 21 22 23 24 25 26 27
7 7 8 8 8 8 8 9 9 10 10 10 11 11 11 11 11 11 11 10 10 10 11 11 12 14 14 15 16 16 17 18 19 20 21 23 24 25 26 26 27 28 29
Wind_Direction
277 280 278 278 279 275 275 276 276 277 278 280 278 279 280 281 280 279 277 275 273 271 268 268 267 264 260 258 257 256 256 256 255 255 254 256 259 260 259 260 261 261 262
277 278 277 277 278 276 276 277 277 278 280 280 279 279 279 280 280 279 276 275 273 272 269 268 266 262 260 257 257 256 255 255 255 255 255 257 258 258 258 260 262 262 262
279 280 279 279 276 275 277 278 276 277 279 280 279 279 280 281 280 278 277 275 274 274 272 270 266 262 259 259 259 257 256 255 256 257 258 259 260 259 259 260 261 262 262
281 282 279 279 277 276 277 277 276 276 278 281 279 279 280 280 280 279 276 274 274 273 272 270 267 265 261 260 260 258 256 256 256 257 259 260 260 260 260 259 260 261 263
284 284 283 283 279 277 278 277 278 278 279 280 279 278 279 280 280 278 275 273 273 272 270 268 267 266 263 261 260 259 256 254 254 257 258 258 260 261 262 262 262 263 263
284 284 286 286 283 282 281 281 280 280 281 281 279 277 276 277 279 279 276 274 271 270 268 267 267 267 265 262 259 259 258 256 256 257 258 259 260 262 262 261 262 262 260
286 286 289 290 286 283 284 283 283 282 281 280 279 277 275 276 278 278 275 273 272 271 268 267 268 267 265 262 260 259 258 257 258 257 256 257 259 260 261 259 258 258 257
294 292 292 293 292 290 289 287 285 283 281 281 280 277 275 276 277 276 274 275 274 272 268 267 267 266 264 263 263 262 259 256 255 254 254 255 257 258 259 260 258 257 256
297 297 296 296 295 296 295 293 291 288 285 284 282 279 277 275 275 274 274 276 275 272 269 268 268 265 263 262 263 260 255 251 250 250 252 252 253 256 256 257 257 255 252
299 298 300 299 298 299 299 297 295 293 289 287 285 280 278 277 277 274 273 275 275 270 268 267 265 264 265 264 262 259 252 249 250 251 250 247 248 250 250 250 250 249 247
301 302 301 301 301 301 303 303 300 297 293 290 286 284 283 280 280 276 274 274 275 269 262 260 263 265 263 259 258 256 251 250 249 248 247 245 243 243 245 245 245 246 246
303 303 305 308 309 309 308 310 311 307 300 296 294 292 289 284 281 279 275 275 274 268 260 258 259 260 261 256 254 252 251 251 251 247 244 243 242 242 242 241 243 244 243
317 313 311 313 316 316 318 319 317 315 312 307 303 302 299 292 288 287 278 275 269 261 255 257 257 260 259 254 254 253 249 248 248 243 241 241 239 238 239 239 240 244 245
326 325 323 327 329 329 327 325 324 322 321 318 314 310 307 300 298 297 291 275 261 258 257 253 254 254 256 251 251 247 244 244 243 244 243 237 233 233 236 239 241 243 245
338 341 342 342 341 340 341 341 336 331 328 327 325 319 311 307 306 309 307 286 266 261 253 247 250 251 251 248 244 244 246 238 237 238 233 228 227 231 234 237 240 246 249
356 351 350 355 1 3 2 358 355 351 347 344 341 334 322 316 314 314 319 301 267 251 244 240 243 251 252 251 245 243 243 242 235 232 228 229 231 234 238 240 245 250 252
359 354 357 3 8 11 11 9 8 8 9 7 358 350 343 334 326 322 327 317 267 239 241 246 243 240 240 238 240 241 243 242 235 230 227 230 235 238 241 244 249 254 257
3 1 1 359 2 10 12 13 13 13 13 12 12 10 0 353 344 339 334 320 299 260 248 243 235 232 236 240 247 246 243 238 238 232 234 238 241 242 246 250 254 260 264
7 9 7 7 11 14 16 16 16 13 10 10 9 8 9 9 7 358 343 334 315 286 263 243 240 236 239 247 256 253 249 249 244 241 243 244 245 245 249 254 259 265 271
12 12 13 12 5 6 10 8 8 8 8 8 11 14 18 19 18 11 356 347 328 301 279 260 255 251 249 252 255 256 256 254 253 251 250 251 251 252 255 260 265 270 275
17 16 15 13 12 11 11 11 10 11 13 12 10 11 11 10 9 5 358 343 326 304 290 278 271 263 260 258 259 259 262 263 260 258 253 255 258 261 265 268 271 274 277
16 17 14 11 10 10 10 9 9 7 6 7 9 8 6 1 350 342 335 331 320 306 291 283 280 276 272 271 271 270 268 268 267 265 262 263 264 267 270 272 275 277 280
10 7 5 2 360 360 360 358 357 358 359 0 1 0 359 357 348 334 325 317 312 305 296 289 286 283 279 277 278 277 275 272 271 271 271 270 271 272 274 276 278 278 280
5 5 4 0 357 356 355 354 355 355 355 354 353 350 347 345 343 338 332 325 316 307 299 292 290 288 285 282 279 279 278 278 276 275 275 275 275 276 277 278 280 281 282
8 5 2 358 358 357 356 356 355 353 351 349 345 342 339 337 334 331 327 322 318 310 303 299 297 294 290 287 284 282 281 281 280 279 278 278 278 280 281 281 283 284 285
10 6 2 358 357 355 354 353 352 349 346 343 340 339 337 334 331 326 322 317 310 305 301 298 295 293 292 290 287 285 283 283 283 283 283 283 282 283 283 284 285 286 287
Height
5782 5780 5779 5778 5776 5775 5774 5773 5772 5771 5770 5769 5768 5767 5766 5765 5763 5762 5761 5760 5760 5760 5760 5760 5760 5760 5760 5760 5761 5761 5762 5763 5765 5766 5767 5768 5769 5770 5771 5773 5774 5775 5776
5775 5773 5772 5771 5769 5768 5767 5766 5765 5764 5763 5762 5761 5760 5759 5758 5756 5755 5754 5753 5753 5753 5753 5753 5753 5753 5753 5753 5754 5755 5756 5757 5758 5759 5761 5762 5763 5764 5765 5766 5767 5768 5769
5767 5765 5764 5764 5763 5761 5760 5759 5758 5757 5756 5755 5754 5753 5752 5751 5749 5748 5748 5747 5746 5746 5746 5747 5747 5747 5747 5747 5748 5749 5750 5751 5752 5753 5754 5755 5756 5757 5758 5759 5760 5761 5762
5760 5759 5758 5757 5756 5755 5753 5752 5751 5750 5749 5748 5747 5746 5745 5744 5743 5742 5741 5740 5740 5740 5740 5740 5741 5741 5741 5741 5742 5743 5744 5745 5746 5747 5748 5749 5750 5751 5752 5753 5754 5755 5756
5755 5753 5752 5751 5749 5748 5747 5745 5744 5744 5742 5741 5740 5739 5739 5738 5736 5735 5735 5734 5734 5734 5734 5734 5735 5735 5735 5735 5736 5737 5738 5739 5740 5741 5742 5743 5744 5745 5746 5746 5747 5748 5749
5749 5748 5747 5745 5743 5742 5741 5739 5738 5737 5736 5735 5734 5733 5732 5732 5731 5729 5729 5728 5728 5728 5728 5728 5729 5729 5729 5730 5730 5731 5732 5733 5734 5735 5736 5738 5739 5739 5740 5741 5741 5743 5744
5744 5743 5742 5740 5738 5736 5735 5733 5732 5731 5730 5728 5728 5727 5726 5726 5725 5724 5723 5722 5722 5722 5722 5723 5723 5723 5724 5724 5724 5725 5726 5727 5728 5729 5730 5732 5733 5734 5734 5735 5736 5737 5738
5740 5738 5737 5735 5733 5731 5729 5728 5726 5725 5723 5722 5721 5721 5720 5720 5719 5718 5718 5717 5717 5717 5717 5717 5718 5718 5718 5719 5719 5720 5720 5721 5722 5724 5725 5726 5727 5728 5729 5730 5731 5732 5733
5736 5734 5732 5731 5729 5727 5725 5723 5721 5719 5718 5717 5716 5715 5714 5714 5713 5713 5713 5712 5712 5712 5712 5712 5713 5713 5713 5714 5714 5714 5715 5716 5717 5718 5719 5721 5722 5723 5724 5725 5726 5727 5728
5732 5730 5729 5727 5725 5723 5721 5719 5717 5715 5714 5712 5711 5710 5710 5709 5709 5708 5708 5708 5708 5708 5708 5708 5708 5709 5709 5709 5710 5710 5710 5712 5713 5714 5715 5716 5717 5719 5720 5721 5722 5723 5724
5729 5727 5725 5724 5722 5720 5718 5715 5713 5712 5710 5709 5708 5707 5706 5705 5705 5704 5704 5704 5704 5704 5704 5705 5705 5705 5705 5705 5706 5706 5707 5707 5709 5710 5711 5712 5713 5715 5716 5717 5718 5720 5721
5726 5724 5723 5721 5719 5717 5715 5713 5711 5709 5708 5706 5705 5704 5703 5702 5702 5701 5701 5701 5701 5701 5701 5702 5702 5702 5702 5702 5703 5703 5704 5704 5705 5706 5707 5709 5710 5712 5713 5714 5715 5717 5718
5724 5722 5721 5719 5717 5715 5713 5711 5709 5707 5706 5704 5703 5702 5700 5700 5699 5699 5698 5698 5698 5699 5699 5699 5700 5700 5700 5700 5701 5701 5701 5702 5703 5704 5705 5706 5708 5709 5710 5712 5713 5714 5715
5722 5721 5719 5717 5716 5714 5712 5710 5708 5706 5704 5703 5701 5700 5699 5698 5698 5697 5696 5696 5696 5697 5697 5697 5698 5698 5698 5698 5699 5699 5700 5700 5701 5702 5703 5704 5705 5707 5708 5709 5710 5711 5712
5721 5720 5718 5716 5714 5713 5711 5709 5707 5705 5703 5702 5700 5699 5698 5697 5697 5696 5695 5695 5695 5695 5695 5696 5696 5697 5697 5697 5698 5698 5698 5699 5700 5701 5701 5702 5703 5705 5706 5707 5708 5708 5709
5721 5719 5718 5716 5714 5712 5711 5709 5707 5705 5703 5701 5700 5699 5698 5697 5696 5695 5695 5694 5694 5694 5695 5695 5695 5696 5696 5697 5697 5697 5698 5698 5699 5699 5700 5701 5702 5703 5704 5705 5705 5706 5706
5720 5719 5717 5716 5714 5713 5711 5709 5707 5705 5704 5702 5700 5699 5698 5697 5696 5695 5695 5694 5694 5694 5694 5694 5695 5695 5695 5696 5696 5696 5697 5697 5698 5698 5699 5700 5700 5701 5702 5702 5703 5703 5703
5720 5719 5718 5716 5715 5713 5711 5709 5708 5706 5704 5702 5700 5699 5698 5697 5696 5695 5695 5694 5694 5694 5694 5694 5694 5695 5695 5695 5696 5696 5696 5696 5697 5697 5697 5698 5699 5699 5700 5700 5700 5700 5700
5721 5719 5718 5717 5715 5714 5712 5710 5709 5707 5705 5703 5701 5700 5698 5697 5696 5695 5695 5695 5694 5694 5694 5694 5694 5694 5694 5695 5695 5695 5695 5695 5695 5695 5696 5696 5697 5697 5697 5698 5698 5698 5698
5721 5720 5719 5717 5716 5714 5713 5711 5709 5708 5706 5704 5702 5701 5699 5698 5697 5696 5695 5695 5694 5694 5694 5693 5693 5693 5693 5693 5693 5693 5693 5693 5693 5694 5694 5694 5694 5694 5695 5695 5695 5695 5694
5722 5721 5719 5718 5716 5715 5713 5712 5710 5708 5706 5704 5703 5701 5700 5698 5697 5696 5695 5695 5694 5694 5693 5693 5693 5692 5692 5692 5692 5692 5691 5691 5691 5691 5691 5691 5692 5692 5691 5691 5691 5691 5690
5723 5721 5720 5718 5717 5715 5714 5712 5710 5708 5707 5705 5704 5702 5700 5699 5698 5696 5695 5695 5694 5693 5693 5692 5692 5691 5691 5690 5690 5690 5689 5689 5689 5689 5688 5688 5688 5688 5687 5687 5686 5685 5684
5723 5722 5720 5719 5717 5716 5714 5712 5710 5709 5707 5705 5704 5702 5701 5699 5698 5696 5695 5694 5693 5692 5692 5691 5690 5690 5689 5688 5688 5687 5687 5686 5686 5685 5685 5684 5684 5683 5682 5681 5680 5679 5678
5723 5722 5720 5719 5717 5716 5714 5712 5710 5709 5707 5706 5704 5702 5701 5699 5697 5696 5695 5693 5692 5691 5690 5689 5689 5688 5687 5686 5685 5684 5683 5683 5682 5681 5680 5680 5679 5677 5676 5675 5674 5672 5671
5723 5722 5720 5719 5717 5715 5714 5712 5710 5709 5707 5705 5703 5702 5700 5698 5697 5695 5694 5692 5691 5690 5688 5687 5686 5685 5684 5683 5682 5681 5679 5678 5677 5676 5675 5674 5672 5671 5669 5668 5666 5664 5662
5723 5722 5720 5719 5717 5715 5714 5712 5710 5708 5706 5704 5703 5701 5699 5697 5695 5694 5692 5690 5689 5687 5686 5685 5683 5682 5680 5679 5677 5676 5675 5673 5672 5670 5668 5667 5665 5664 5662 5660 5658 5656 5653